Weather History for Fairhope, AL

Change the Weather History Date:

Sunday, January 20, 2013

  Actual Average (KBFM) Record (KBFM)
Temperature  
Mean Temperature 50 °F -  
Max Temperature 64 °F 58 °F 100 °F (1998)
Min Temperature 35 °F 39 °F 27 °F (2008)
Degree Days  
Heating Degree Days 16    
Moisture  
Dew Point 42 °F    
Average Humidity 80    
Maximum Humidity 100    
Minimum Humidity 32    
Precipitation  
Precipitation 0.00 in - - ()
Sea Level Pressure  
Sea Level Pressure 30.21 in    
Wind  
Wind Speed 1 mph (NW)    
Max Wind Speed 9 mph    
Max Gust Speed -    
Visibility 7 miles    
Events      
Averages and records for this station are not official NWS values.
T = Trace of Precipitation, MM = Missing Value Source: NWS Daily Summary

Daily Weather History Graph

Daily Weather History Graph

Search for Another Location

Airport:

Trip Planner

Search our weather history database for the weather conditions in past years. The results will help you decide how hot, cold, wet, or windy it might be!

Date:

Astronomy

Jan. 20, 2013 Rise Set
Actual Time 6:47 AM CST 5:17 PM CST
Civil Twilight 6:22 AM CST 5:43 PM CST
Nautical Twilight 5:52 AM CST 6:12 PM CST
Astronomical Twilight 5:24 AM CST 6:41 PM CST
Moon 12:17 PM CST (1/20) 1:22 AM CST (1/20)
Length of Visible Light 11h 21m
Length of Day
10h 29m
Waxing Gibbous, 66% of the Moon is Illuminated
Jan 20
Waxing Gibbous
Jan 26
Full
Feb 3
Last Quarter
Feb 10
New
Feb 17
First Quarter

Hourly Weather History & Observations

Time (CST) Temp. Dew Point Humidity Pressure Visibility Wind Dir Wind Speed Gust Speed Precip Events Conditions
12:15 AM 39.2 °F 37.4 °F 93% 30.26 in 7.0 mi Calm Calm - N/A   Clear
12:35 AM 41.0 °F 41.0 °F 100% 30.26 in 5.0 mi Calm Calm - N/A   Clear
1:15 AM 39.2 °F 39.2 °F 100% 30.26 in 5.0 mi Calm Calm - N/A   Clear
1:35 AM 41.0 °F 41.0 °F 100% 30.26 in 5.0 mi Calm Calm - N/A   Clear
1:55 AM 41.0 °F 41.0 °F 100% 30.25 in 5.0 mi Calm Calm - N/A   Clear
2:15 AM 41.0 °F 41.0 °F 100% 30.26 in 7.0 mi Calm Calm - N/A   Clear
2:35 AM 37.4 °F 37.4 °F 100% 30.25 in 3.0 mi Calm Calm - N/A   Clear
2:55 AM 39.2 °F 39.2 °F 100% 30.25 in 7.0 mi Calm Calm - N/A   Clear
3:15 AM 39.2 °F 39.2 °F 100% 30.25 in 5.0 mi Calm Calm - N/A   Clear
3:35 AM 37.4 °F 37.4 °F 100% 30.24 in 3.0 mi Calm Calm - N/A   Clear
3:55 AM 37.4 °F 37.4 °F 100% 30.24 in 5.0 mi Calm Calm - N/A   Clear
4:15 AM 37.4 °F 37.4 °F 100% 30.24 in 7.0 mi Calm Calm - N/A   Clear
4:35 AM 37.4 °F 37.4 °F 100% 30.24 in 4.0 mi Calm Calm - N/A   Clear
4:55 AM 37.4 °F 37.4 °F 100% 30.24 in 5.0 mi Calm Calm - N/A   Clear
5:15 AM 39.2 °F 39.2 °F 100% 30.24 in 5.0 mi Calm Calm - N/A   Clear
5:35 AM 37.4 °F 37.4 °F 100% 30.25 in 10.0 mi Calm Calm - N/A   Clear
6:15 AM 35.6 °F 35.6 °F 100% 30.25 in 5.0 mi Calm Calm - N/A   Clear
6:35 AM 35.6 °F 35.6 °F 100% 30.25 in 5.0 mi Calm Calm - N/A   Clear
6:55 AM 35.6 °F 35.6 °F 100% 30.25 in 7.0 mi Calm Calm - N/A   Clear
7:15 AM 35.6 °F 35.6 °F 100% 30.26 in 4.0 mi Calm Calm - N/A   Clear
7:35 AM 37.4 °F 37.4 °F 100% 30.25 in 7.0 mi Calm Calm - N/A   Clear
7:55 AM 42.8 °F 42.8 °F 100% 30.26 in 10.0 mi Calm Calm - N/A   Clear
8:15 AM 46.4 °F 46.4 °F 100% 30.26 in 10.0 mi Calm Calm - N/A   Clear
8:35 AM 51.8 °F 48.2 °F 88% 30.27 in 10.0 mi Calm Calm - N/A   Clear
8:55 AM 53.6 °F 46.4 °F 77% 30.28 in 10.0 mi Calm Calm - N/A   Clear
9:15 AM 55.4 °F 48.2 °F 77% 30.28 in 10.0 mi North 3.5 mph - N/A   Clear
9:35 AM 59.0 °F 46.4 °F 63% 30.29 in 10.0 mi NNW 4.6 mph - N/A   Clear
9:55 AM 59.0 °F 44.6 °F 59% 30.28 in 7.0 mi North 6.9 mph - N/A   Clear
10:15 AM 60.8 °F 46.4 °F 59% 30.28 in 7.0 mi North 4.6 mph - N/A   Clear
10:35 AM 62.6 °F 44.6 °F 52% 30.27 in 7.0 mi North 4.6 mph - N/A   Clear
10:55 AM 62.6 °F 44.6 °F 52% 30.26 in 7.0 mi North 4.6 mph - N/A   Clear
11:15 AM 62.6 °F 44.6 °F 52% 30.25 in 10.0 mi NNW 5.8 mph - N/A   Clear
11:35 AM 62.6 °F 46.4 °F 55% 30.24 in 7.0 mi WNW 5.8 mph - N/A   Clear
11:55 AM 64.4 °F 44.6 °F 49% 30.23 in 7.0 mi NNW 5.8 mph - N/A   Clear
12:15 PM 64.4 °F 44.6 °F 49% 30.22 in 7.0 mi NW 9.2 mph - N/A   Clear
12:35 PM 64.4 °F 44.6 °F 49% 30.21 in 10.0 mi WNW 6.9 mph - N/A   Clear
12:55 PM 64.4 °F 44.6 °F 49% 30.19 in 7.0 mi NW 8.1 mph - N/A   Clear
1:15 PM 64.4 °F 44.6 °F 49% 30.18 in 7.0 mi WNW 8.1 mph - N/A   Clear
1:35 PM 64.4 °F 44.6 °F 49% 30.17 in 7.0 mi NNW 6.9 mph - N/A   Clear
1:55 PM 64.4 °F 44.6 °F 49% 30.16 in 7.0 mi WNW 8.1 mph - N/A   Clear
2:15 PM 64.4 °F 44.6 °F 49% 30.16 in 7.0 mi WNW 6.9 mph - N/A   Clear
2:35 PM 64.4 °F 44.6 °F 49% 30.15 in 10.0 mi NW 6.9 mph - N/A   Clear
2:55 PM 64.4 °F 44.6 °F 49% 30.14 in 7.0 mi NW 5.8 mph - N/A   Clear
3:15 PM 64.4 °F 41.0 °F 42% 30.14 in 10.0 mi West 6.9 mph - N/A   Clear
3:35 PM 64.4 °F 41.0 °F 42% 30.14 in 7.0 mi WNW 5.8 mph - N/A   Clear
3:55 PM 64.4 °F 41.0 °F 42% 30.14 in 7.0 mi WNW 4.6 mph - N/A   Clear
4:15 PM 64.4 °F 37.4 °F 37% 30.14 in 7.0 mi NNW 3.5 mph - N/A   Clear
4:35 PM 64.4 °F 33.8 °F 32% 30.14 in 10.0 mi Calm Calm - N/A   Clear
4:55 PM 62.6 °F 35.6 °F 37% 30.14 in 7.0 mi Calm Calm - N/A   Clear
5:15 PM 59.0 °F 41.0 °F 51% 30.14 in 7.0 mi Calm Calm - N/A   Clear
5:35 PM 57.2 °F 46.4 °F 67% 30.14 in 7.0 mi SW 4.6 mph - N/A   Clear
5:55 PM 53.6 °F 44.6 °F 72% 30.15 in 7.0 mi Calm Calm - N/A   Clear
6:15 PM 50.0 °F 44.6 °F 82% 30.15 in 10.0 mi Calm Calm - N/A   Clear
6:35 PM 46.4 °F 44.6 °F 93% 30.15 in 7.0 mi Calm Calm - N/A   Clear
6:55 PM 46.4 °F 44.6 °F 93% 30.16 in 7.0 mi Calm Calm - N/A   Clear
7:15 PM 46.4 °F 42.8 °F 87% 30.16 in 7.0 mi Calm Calm - N/A   Clear
7:35 PM 46.4 °F 44.6 °F 93% 30.16 in 7.0 mi Calm Calm - N/A   Clear
7:55 PM 46.4 °F 44.6 °F 93% 30.16 in 7.0 mi Calm Calm - N/A   Clear
8:15 PM 46.4 °F 44.6 °F 93% 30.16 in 10.0 mi Calm Calm - N/A   Clear
8:35 PM 44.6 °F 42.8 °F 93% 30.17 in 10.0 mi Calm Calm - N/A   Clear
8:55 PM 42.8 °F 42.8 °F 100% 30.18 in 7.0 mi Calm Calm - N/A   Clear
9:15 PM 42.8 °F 42.8 °F 100% 30.18 in 5.0 mi Calm Calm - N/A   Clear
9:35 PM 41.0 °F 41.0 °F 100% 30.18 in 7.0 mi Calm Calm - N/A   Clear
9:55 PM 41.0 °F 41.0 °F 100% 30.18 in 0.8 mi Calm Calm - N/A   Mist
10:15 PM 41.0 °F 41.0 °F 100% 30.19 in 1.0 mi Calm Calm - N/A   Mist
10:35 PM 41.0 °F 41.0 °F 100% 30.18 in 1.2 mi Calm Calm - N/A   Mist
10:55 PM 41.0 °F 41.0 °F 100% 30.19 in 1.5 mi Calm Calm - N/A   Mist
11:15 PM 41.0 °F 41.0 °F 100% 30.18 in 10.0 mi Calm Calm - N/A   Clear
11:35 PM 39.2 °F 39.2 °F 100% 30.17 in 4.0 mi Calm Calm - N/A   Clear
11:55 PM 39.2 °F 39.2 °F 100% 30.16 in 0.8 mi Calm Calm - N/A   Mist